Time,TemperatureF,DewpointF,PressureIn,WindDirection,WindDirectionDegrees,WindSpeedMPH,WindSpeedGustMPH,Humidity,HourlyPrecipIn,Conditions,Clouds,dailyrainin,SoftwareType,DateUTC
2013-09-07 00:00:00,70.8,57.2,29.80,SE,139,0.0,5.0,62,0.00,,---,0.00,VWS V14.01,2013-09-07 07:00:00,
2013-09-07 00:02:00,70.8,57.2,29.81,SE,134,0.0,0.0,62,0.00,,---,0.00,VWS V14.01,2013-09-07 07:02:00,
2013-09-07 00:05:00,70.8,57.2,29.81,ESE,122,1.0,2.0,62,0.00,,---,0.00,VWS V14.01,2013-09-07 07:05:00,
2013-09-07 00:07:00,70.6,57.0,29.81,ESE,123,0.0,1.0,62,0.00,,---,0.00,VWS V14.01,2013-09-07 07:07:00,
2013-09-07 00:10:00,70.6,57.0,29.81,ESE,123,0.0,1.0,62,0.00,,---,0.00,VWS V14.01,2013-09-07 07:10:00,
2013-09-07 00:12:00,70.5,57.3,29.81,ESE,122,0.0,4.0,63,0.00,,---,0.00,VWS V14.01,2013-09-07 07:12:00,
2013-09-07 00:15:00,70.5,57.3,29.81,ESE,123,0.0,4.0,63,0.00,,---,0.00,VWS V14.01,2013-09-07 07:15:00,
2013-09-07 00:17:00,70.4,57.2,29.81,SE,136,0.0,0.0,63,0.00,,---,0.00,VWS V14.01,2013-09-07 07:17:00,
2013-09-07 00:20:00,70.4,57.2,29.81,SE,132,0.0,0.0,63,0.00,,---,0.00,VWS V14.01,2013-09-07 07:20:00,
2013-09-07 00:22:00,70.3,57.6,29.81,ESE,115,3.0,7.0,64,0.00,,---,0.00,VWS V14.01,2013-09-07 07:22:00,
2013-09-07 00:25:00,70.3,58.0,29.81,SE,126,4.0,7.0,65,0.00,,---,0.00,VWS V14.01,2013-09-07 07:25:00,
2013-09-07 00:27:00,70.1,57.8,29.81,ESE,113,5.0,7.0,65,0.00,,---,0.00,VWS V14.01,2013-09-07 07:27:00,
2013-09-07 00:30:00,70.0,57.7,29.81,ESE,123,2.0,7.0,65,0.00,,---,0.00,VWS V14.01,2013-09-07 07:30:00,
2013-09-07 00:31:00,69.9,58.0,29.81,SE,136,2.0,4.0,66,0.00,,---,0.00,VWS V14.01,2013-09-07 07:31:00,
2013-09-07 00:35:00,69.8,57.9,29.80,SE,130,6.0,6.0,66,0.00,,---,0.00,VWS V14.01,2013-09-07 07:35:00,
2013-09-07 00:36:00,69.8,57.9,29.81,SE,126,0.0,6.0,66,0.00,,---,0.00,VWS V14.01,2013-09-07 07:36:00,
2013-09-07 00:40:00,69.8,57.9,29.80,SE,128,0.0,6.0,66,0.00,,---,0.00,VWS V14.01,2013-09-07 07:40:00,
2013-09-07 00:41:00,69.8,57.9,29.81,ESE,123,0.0,0.0,66,0.00,,---,0.00,VWS V14.01,2013-09-07 07:41:00,
2013-09-07 00:45:00,69.7,57.8,29.80,ESE,122,0.0,0.0,66,0.00,,---,0.00,VWS V14.01,2013-09-07 07:45:00,
2013-09-07 00:46:00,69.7,57.8,29.81,SE,126,0.0,3.0,66,0.00,,---,0.00,VWS V14.01,2013-09-07 07:46:00,
2013-09-07 00:50:00,69.7,57.8,29.81,ESE,111,6.0,6.0,66,0.00,,---,0.00,VWS V14.01,2013-09-07 07:50:00,
2013-09-07 00:51:00,69.6,57.8,29.81,ESE,119,3.0,6.0,66,0.00,,---,0.00,VWS V14.01,2013-09-07 07:51:00,
2013-09-07 00:55:00,69.6,57.8,29.81,ESE,120,2.0,6.0,66,0.00,,---,0.00,VWS V14.01,2013-09-07 07:55:00,
2013-09-07 00:56:00,69.6,58.2,29.81,ESE,123,3.0,6.0,67,0.00,,---,0.00,VWS V14.01,2013-09-07 07:56:00,
2013-09-07 01:00:00,69.6,58.2,29.81,SE,124,3.0,6.0,67,0.00,,---,0.00,VWS V14.01,2013-09-07 08:00:00,
2013-09-07 01:01:00,69.6,58.2,29.81,ESE,121,0.0,3.0,67,0.00,,---,0.00,VWS V14.01,2013-09-07 08:01:00,
2013-09-07 01:05:00,69.6,58.2,29.81,ESE,123,0.0,3.0,67,0.00,,---,0.00,VWS V14.01,2013-09-07 08:05:00,
2013-09-07 01:06:00,69.7,58.3,29.81,ESE,121,0.0,2.0,67,0.00,,---,0.00,VWS V14.01,2013-09-07 08:06:00,
2013-09-07 01:10:00,69.7,58.3,29.81,ESE,122,0.0,2.0,67,0.00,,---,0.00,VWS V14.01,2013-09-07 08:10:00,
2013-09-07 01:11:00,69.7,58.3,29.81,ESE,121,0.0,0.0,67,0.00,,---,0.00,VWS V14.01,2013-09-07 08:11:00,
2013-09-07 01:15:00,69.7,58.3,29.81,ESE,121,0.0,0.0,67,0.00,,---,0.00,VWS V14.01,2013-09-07 08:15:00,
2013-09-07 01:16:00,69.7,58.3,29.81,ESE,121,0.0,0.0,67,0.00,,---,0.00,VWS V14.01,2013-09-07 08:16:00,
2013-09-07 01:20:00,69.7,58.3,29.81,ESE,121,0.0,0.0,67,0.00,,---,0.00,VWS V14.01,2013-09-07 08:20:00,
2013-09-07 01:21:00,69.7,58.3,29.81,ESE,121,0.0,0.0,67,0.00,,---,0.00,VWS V14.01,2013-09-07 08:21:00,
2013-09-07 01:25:00,69.7,58.3,29.81,ESE,121,0.0,0.0,67,0.00,,---,0.00,VWS V14.01,2013-09-07 08:25:00,
2013-09-07 01:26:00,69.7,58.3,29.81,ESE,121,0.0,0.0,67,0.00,,---,0.00,VWS V14.01,2013-09-07 08:26:00,
2013-09-07 01:30:00,69.7,58.3,29.81,ESE,121,0.0,0.0,67,0.00,,---,0.00,VWS V14.01,2013-09-07 08:30:00,
2013-09-07 01:31:00,69.7,58.3,29.81,ESE,121,0.0,0.0,67,0.00,,---,0.00,VWS V14.01,2013-09-07 08:31:00,
2013-09-07 01:35:00,69.7,58.3,29.81,ESE,121,0.0,0.0,67,0.00,,---,0.00,VWS V14.01,2013-09-07 08:35:00,
2013-09-07 01:36:00,69.7,58.3,29.81,ESE,121,0.0,0.0,67,0.00,,---,0.00,VWS V14.01,2013-09-07 08:36:00,
2013-09-07 01:40:00,69.7,58.7,29.81,ESE,121,0.0,0.0,68,0.00,,---,0.00,VWS V14.01,2013-09-07 08:40:00,
2013-09-07 01:41:00,69.5,59.7,29.81,ESE,121,0.0,0.0,71,0.00,,---,0.00,VWS V14.01,2013-09-07 08:41:00,
2013-09-07 01:45:00,69.4,59.6,29.81,ESE,121,0.0,0.0,71,0.00,,---,0.00,VWS V14.01,2013-09-07 08:45:00,
2013-09-07 01:46:00,69.3,59.9,29.81,ESE,121,0.0,0.0,72,0.01,,---,0.01,VWS V14.01,2013-09-07 08:46:00,
2013-09-07 01:50:00,69.3,59.9,29.81,ESE,121,0.0,0.0,72,0.01,,---,0.01,VWS V14.01,2013-09-07 08:50:00,
2013-09-07 01:51:00,69.0,60.8,29.81,ESE,121,0.0,0.0,75,0.01,,---,0.01,VWS V14.01,2013-09-07 08:51:00,
2013-09-07 01:55:00,69.0,60.8,29.81,ESE,121,0.0,0.0,75,0.01,,---,0.01,VWS V14.01,2013-09-07 08:55:00,
2013-09-07 01:56:00,68.7,60.5,29.81,ESE,121,0.0,0.0,75,0.01,,---,0.01,VWS V14.01,2013-09-07 08:56:00,
2013-09-07 02:00:00,68.7,60.8,29.80,ESE,121,0.0,0.0,76,0.01,,---,0.01,VWS V14.01,2013-09-07 09:00:00,
2013-09-07 02:01:00,68.5,60.3,29.80,ESE,121,0.0,0.0,75,0.01,,---,0.01,VWS V14.01,2013-09-07 09:01:00,
2013-09-07 02:05:00,68.5,60.3,29.80,ESE,121,0.0,0.0,75,0.01,,---,0.01,VWS V14.01,2013-09-07 09:05:00,
2013-09-07 02:06:00,68.4,60.9,29.80,ESE,121,0.0,0.0,77,0.01,,---,0.01,VWS V14.01,2013-09-07 09:06:00,
2013-09-07 02:10:00,68.4,61.6,29.80,ESE,121,0.0,0.0,79,0.01,,---,0.01,VWS V14.01,2013-09-07 09:10:00,
2013-09-07 02:11:00,68.3,61.9,29.81,ESE,121,0.0,0.0,80,0.01,,---,0.01,VWS V14.01,2013-09-07 09:11:00,
2013-09-07 02:15:00,68.3,61.9,29.80,ESE,121,0.0,0.0,80,0.01,,---,0.01,VWS V14.01,2013-09-07 09:15:00,
2013-09-07 02:16:00,68.2,61.8,29.80,ESE,121,0.0,0.0,80,0.01,,---,0.01,VWS V14.01,2013-09-07 09:16:00,
2013-09-07 02:20:00,68.1,61.3,29.81,ESE,121,0.0,0.0,79,0.01,,---,0.01,VWS V14.01,2013-09-07 09:20:00,
2013-09-07 02:21:00,68.1,61.3,29.81,ESE,121,0.0,0.0,79,0.01,,---,0.01,VWS V14.01,2013-09-07 09:21:00,
2013-09-07 02:25:00,68.0,61.2,29.80,ESE,121,0.0,0.0,79,0.01,,---,0.01,VWS V14.01,2013-09-07 09:25:00,
2013-09-07 02:26:00,68.0,61.2,29.81,ESE,121,0.0,0.0,79,0.01,,---,0.01,VWS V14.01,2013-09-07 09:26:00,
2013-09-07 02:30:00,67.9,61.2,29.80,ESE,121,0.0,0.0,79,0.01,,---,0.01,VWS V14.01,2013-09-07 09:30:00,
2013-09-07 02:31:00,67.8,60.7,29.80,ESE,121,0.0,0.0,78,0.01,,---,0.01,VWS V14.01,2013-09-07 09:31:00,
2013-09-07 02:35:00,67.8,60.7,29.80,ESE,121,0.0,0.0,78,0.01,,---,0.01,VWS V14.01,2013-09-07 09:35:00,
2013-09-07 02:36:00,67.8,60.7,29.80,ESE,121,0.0,0.0,78,0.01,,---,0.01,VWS V14.01,2013-09-07 09:36:00,
2013-09-07 02:40:00,67.8,60.7,29.80,ESE,121,0.0,0.0,78,0.01,,---,0.01,VWS V14.01,2013-09-07 09:40:00,
2013-09-07 02:41:00,67.8,60.7,29.80,ESE,121,0.0,0.0,78,0.01,,---,0.01,VWS V14.01,2013-09-07 09:41:00,
2013-09-07 02:45:00,67.8,60.7,29.80,ESE,121,0.0,0.0,78,0.01,,---,0.01,VWS V14.01,2013-09-07 09:45:00,
2013-09-07 02:46:00,67.7,60.6,29.80,ESE,121,0.0,0.0,78,0.01,,---,0.01,VWS V14.01,2013-09-07 09:46:00,
2013-09-07 02:50:00,67.7,60.6,29.80,ESE,121,0.0,0.0,78,0.01,,---,0.01,VWS V14.01,2013-09-07 09:50:00,
2013-09-07 02:51:00,67.7,60.6,29.80,ESE,121,0.0,0.0,78,0.00,,---,0.01,VWS V14.01,2013-09-07 09:51:00,
2013-09-07 02:55:00,67.7,61.0,29.80,ESE,121,0.0,0.0,79,0.00,,---,0.01,VWS V14.01,2013-09-07 09:55:00,
2013-09-07 02:56:00,67.7,60.2,29.80,ESE,121,0.0,0.0,77,0.00,,---,0.01,VWS V14.01,2013-09-07 09:56:00,
2013-09-07 03:00:00,67.7,60.2,29.80,ESE,121,0.0,0.0,77,0.00,,---,0.01,VWS V14.01,2013-09-07 10:00:00,
2013-09-07 03:01:00,67.8,60.0,29.80,ESE,121,0.0,0.0,76,0.00,,---,0.01,VWS V14.01,2013-09-07 10:01:00,
2013-09-07 03:05:00,67.8,60.3,29.80,ESE,121,0.0,0.0,77,0.00,,---,0.01,VWS V14.01,2013-09-07 10:05:00,
2013-09-07 03:06:00,67.9,60.8,29.80,ESE,121,0.0,0.0,78,0.00,,---,0.01,VWS V14.01,2013-09-07 10:06:00,
2013-09-07 03:10:00,67.8,60.7,29.80,ESE,121,0.0,0.0,78,0.00,,---,0.01,VWS V14.01,2013-09-07 10:10:00,
2013-09-07 03:11:00,67.7,60.6,29.80,ESE,121,0.0,0.0,78,0.00,,---,0.01,VWS V14.01,2013-09-07 10:11:00,
2013-09-07 03:15:00,67.7,59.9,29.80,ESE,121,0.0,0.0,76,0.00,,---,0.01,VWS V14.01,2013-09-07 10:15:00,
2013-09-07 03:16:00,67.8,60.0,29.79,ESE,121,0.0,1.0,76,0.00,,---,0.01,VWS V14.01,2013-09-07 10:16:00,
2013-09-07 03:20:00,67.8,60.0,29.79,ESE,121,0.0,1.0,76,0.00,,---,0.01,VWS V14.01,2013-09-07 10:20:00,
2013-09-07 03:21:00,67.8,59.2,29.79,ESE,109,0.0,0.0,74,0.00,,---,0.01,VWS V14.01,2013-09-07 10:21:00,
2013-09-07 03:25:00,67.8,59.2,29.79,ESE,109,0.0,0.0,74,0.00,,---,0.01,VWS V14.01,2013-09-07 10:25:00,
2013-09-07 03:26:00,67.9,58.9,29.80,East,80,0.0,6.0,73,0.00,,---,0.01,VWS V14.01,2013-09-07 10:26:00,
2013-09-07 03:30:00,67.9,58.5,29.80,East,80,0.0,6.0,72,0.00,,---,0.01,VWS V14.01,2013-09-07 10:30:00,
2013-09-07 03:31:00,68.1,58.3,29.80,ENE,78,4.0,4.0,71,0.00,,---,0.01,VWS V14.01,2013-09-07 10:31:00,
2013-09-07 03:35:00,68.2,58.0,29.80,NE,52,3.0,5.0,70,0.00,,---,0.01,VWS V14.01,2013-09-07 10:35:00,
2013-09-07 03:36:00,68.4,58.2,29.80,NNE,19,3.0,7.0,70,0.00,,---,0.01,VWS V14.01,2013-09-07 10:36:00,
2013-09-07 03:40:00,68.5,58.3,29.80,NNE,16,3.0,7.0,70,0.00,,---,0.01,VWS V14.01,2013-09-07 10:40:00,
2013-09-07 03:41:00,68.6,58.8,29.79,North,360,2.0,7.0,71,0.00,,---,0.01,VWS V14.01,2013-09-07 10:41:00,
2013-09-07 03:45:00,68.6,58.8,29.80,North,5,0.0,7.0,71,0.00,,---,0.01,VWS V14.01,2013-09-07 10:45:00,
2013-09-07 03:46:00,68.5,59.1,29.79,North,9,1.0,4.0,72,0.00,,---,0.01,VWS V14.01,2013-09-07 10:46:00,
2013-09-07 03:50:00,68.4,59.0,29.80,North,360,4.0,5.0,72,0.00,,---,0.01,VWS V14.01,2013-09-07 10:50:00,
2013-09-07 03:51:00,68.3,58.9,29.80,North,360,0.0,4.0,72,0.00,,---,0.01,VWS V14.01,2013-09-07 10:51:00,
2013-09-07 03:55:00,68.2,59.2,29.80,North,355,4.0,6.0,73,0.00,,---,0.01,VWS V14.01,2013-09-07 10:55:00,
2013-09-07 03:56:00,68.1,59.1,29.80,North,355,0.0,4.0,73,0.00,,---,0.01,VWS V14.01,2013-09-07 10:56:00,
2013-09-07 04:00:00,68.0,59.0,29.80,North,355,0.0,4.0,73,0.00,,---,0.01,VWS V14.01,2013-09-07 11:00:00,
2013-09-07 04:01:00,68.0,59.0,29.80,North,355,0.0,0.0,73,0.00,,---,0.01,VWS V14.01,2013-09-07 11:01:00,
2013-09-07 04:05:00,68.0,59.0,29.80,North,355,0.0,0.0,73,0.00,,---,0.01,VWS V14.01,2013-09-07 11:05:00,
2013-09-07 04:06:00,67.9,58.9,29.79,North,355,0.0,0.0,73,0.00,,---,0.01,VWS V14.01,2013-09-07 11:06:00,
2013-09-07 04:10:00,67.9,58.9,29.79,North,355,0.0,0.0,73,0.00,,---,0.01,VWS V14.01,2013-09-07 11:10:00,
2013-09-07 04:11:00,67.9,58.9,29.79,North,355,0.0,0.0,73,0.00,,---,0.01,VWS V14.01,2013-09-07 11:11:00,
2013-09-07 04:15:00,67.9,58.9,29.80,North,355,0.0,0.0,73,0.00,,---,0.01,VWS V14.01,2013-09-07 11:15:00,
2013-09-07 04:16:00,67.9,58.9,29.80,North,355,0.0,0.0,73,0.00,,---,0.01,VWS V14.01,2013-09-07 11:16:00,
2013-09-07 04:20:00,67.9,59.3,29.80,North,355,0.0,0.0,74,0.00,,---,0.01,VWS V14.01,2013-09-07 11:20:00,
2013-09-07 04:21:00,67.8,59.2,29.80,North,355,0.0,0.0,74,0.00,,---,0.01,VWS V14.01,2013-09-07 11:21:00,
2013-09-07 04:25:00,67.8,59.2,29.80,North,355,0.0,0.0,74,0.00,,---,0.01,VWS V14.01,2013-09-07 11:25:00,
2013-09-07 04:26:00,67.7,59.1,29.80,North,355,0.0,0.0,74,0.00,,---,0.01,VWS V14.01,2013-09-07 11:26:00,
2013-09-07 04:30:00,67.7,59.1,29.80,North,355,0.0,0.0,74,0.00,,---,0.01,VWS V14.01,2013-09-07 11:30:00,
2013-09-07 04:31:00,67.7,59.5,29.80,North,355,0.0,0.0,75,0.00,,---,0.01,VWS V14.01,2013-09-07 11:31:00,
2013-09-07 04:35:00,67.6,59.4,29.80,North,355,0.0,0.0,75,0.00,,---,0.01,VWS V14.01,2013-09-07 11:35:00,
2013-09-07 04:36:00,67.6,59.8,29.80,North,355,0.0,0.0,76,0.00,,---,0.01,VWS V14.01,2013-09-07 11:36:00,
2013-09-07 04:40:00,67.6,59.8,29.81,North,355,0.0,0.0,76,0.00,,---,0.01,VWS V14.01,2013-09-07 11:40:00,
2013-09-07 04:41:00,67.5,59.7,29.81,North,355,0.0,0.0,76,0.00,,---,0.01,VWS V14.01,2013-09-07 11:41:00,
2013-09-07 04:45:00,67.5,59.7,29.80,North,355,0.0,0.0,76,0.00,,---,0.01,VWS V14.01,2013-09-07 11:45:00,
2013-09-07 04:46:00,67.5,59.7,29.80,North,355,0.0,0.0,76,0.00,,---,0.01,VWS V14.01,2013-09-07 11:46:00,
2013-09-07 04:50:00,67.5,59.7,29.80,North,355,0.0,0.0,76,0.00,,---,0.01,VWS V14.01,2013-09-07 11:50:00,
2013-09-07 04:51:00,67.5,59.7,29.81,North,355,0.0,0.0,76,0.00,,---,0.01,VWS V14.01,2013-09-07 11:51:00,
2013-09-07 04:55:00,67.4,59.6,29.81,North,355,3.0,3.0,76,0.00,,---,0.01,VWS V14.01,2013-09-07 11:55:00,
2013-09-07 04:56:00,67.5,59.3,29.81,North,355,2.0,4.0,75,0.00,,---,0.01,VWS V14.01,2013-09-07 11:56:00,
2013-09-07 05:00:00,67.5,59.3,29.81,North,355,1.0,4.0,75,0.00,,---,0.01,VWS V14.01,2013-09-07 12:00:00,
2013-09-07 05:01:00,67.5,59.3,29.81,North,355,0.0,1.0,75,0.00,,---,0.01,VWS V14.01,2013-09-07 12:01:00,
2013-09-07 05:05:00,67.5,59.3,29.80,North,355,0.0,1.0,75,0.00,,---,0.01,VWS V14.01,2013-09-07 12:05:00,
2013-09-07 05:06:00,67.4,59.2,29.80,North,355,0.0,0.0,75,0.00,,---,0.01,VWS V14.01,2013-09-07 12:06:00,
2013-09-07 05:10:00,67.4,59.2,29.80,North,355,0.0,0.0,75,0.00,,---,0.01,VWS V14.01,2013-09-07 12:10:00,
2013-09-07 05:11:00,67.4,59.6,29.80,North,355,0.0,0.0,76,0.00,,---,0.01,VWS V14.01,2013-09-07 12:11:00,
2013-09-07 05:15:00,67.3,59.5,29.80,North,355,0.0,0.0,76,0.00,,---,0.01,VWS V14.01,2013-09-07 12:15:00,
2013-09-07 05:16:00,67.3,59.5,29.80,North,355,0.0,0.0,76,0.00,,---,0.01,VWS V14.01,2013-09-07 12:16:00,
2013-09-07 05:20:00,67.2,59.4,29.80,North,355,0.0,0.0,76,0.00,,---,0.01,VWS V14.01,2013-09-07 12:20:00,
2013-09-07 05:21:00,67.1,59.3,29.80,North,355,0.0,0.0,76,0.00,,---,0.01,VWS V14.01,2013-09-07 12:21:00,
2013-09-07 05:25:00,67.1,59.7,29.80,North,355,0.0,0.0,77,0.00,,---,0.01,VWS V14.01,2013-09-07 12:25:00,
2013-09-07 05:26:00,67.0,59.6,29.80,North,355,0.0,3.0,77,0.00,,---,0.01,VWS V14.01,2013-09-07 12:26:00,
2013-09-07 05:30:00,67.0,59.6,29.80,North,355,0.0,3.0,77,0.00,,---,0.01,VWS V14.01,2013-09-07 12:30:00,
2013-09-07 05:31:00,67.0,59.6,29.80,North,355,0.0,0.0,77,0.00,,---,0.01,VWS V14.01,2013-09-07 12:31:00,
2013-09-07 05:35:00,67.0,59.6,29.80,North,355,0.0,0.0,77,0.00,,---,0.01,VWS V14.01,2013-09-07 12:35:00,
2013-09-07 05:36:00,67.0,59.9,29.80,North,355,0.0,0.0,78,0.00,,---,0.01,VWS V14.01,2013-09-07 12:36:00,
2013-09-07 05:40:00,66.9,59.8,29.80,North,355,0.0,0.0,78,0.00,,---,0.01,VWS V14.01,2013-09-07 12:40:00,
2013-09-07 05:41:00,66.9,59.8,29.80,North,355,0.0,0.0,78,0.00,,---,0.01,VWS V14.01,2013-09-07 12:41:00,
2013-09-07 05:45:00,66.9,59.8,29.80,NNE,13,0.0,0.0,78,0.00,,---,0.01,VWS V14.01,2013-09-07 12:45:00,
2013-09-07 05:46:00,66.8,59.7,29.80,NNE,13,0.0,0.0,78,0.00,,---,0.01,VWS V14.01,2013-09-07 12:46:00,
2013-09-07 05:50:00,66.8,60.1,29.80,NNE,13,0.0,0.0,79,0.00,,---,0.01,VWS V14.01,2013-09-07 12:50:00,
2013-09-07 05:51:00,66.7,60.0,29.80,NNE,13,0.0,0.0,79,0.00,,---,0.01,VWS V14.01,2013-09-07 12:51:00,
2013-09-07 05:55:00,66.7,60.3,29.80,NNE,13,0.0,0.0,80,0.00,,---,0.01,VWS V14.01,2013-09-07 12:55:00,
2013-09-07 05:56:00,66.7,60.3,29.80,NNE,13,0.0,0.0,80,0.00,,---,0.01,VWS V14.01,2013-09-07 12:56:00,
2013-09-07 06:00:00,66.7,60.3,29.80,NNE,13,0.0,0.0,80,0.00,,---,0.01,VWS V14.01,2013-09-07 13:00:00,
2013-09-07 06:01:00,66.7,60.3,29.80,NNE,13,0.0,0.0,80,0.00,,---,0.01,VWS V14.01,2013-09-07 13:01:00,
2013-09-07 06:05:00,66.7,60.7,29.80,NNE,13,0.0,0.0,81,0.00,,---,0.01,VWS V14.01,2013-09-07 13:05:00,
2013-09-07 06:06:00,66.7,61.0,29.80,NNE,13,0.0,0.0,82,0.00,,---,0.01,VWS V14.01,2013-09-07 13:06:00,
2013-09-07 06:10:00,66.7,61.4,29.80,NNE,13,0.0,0.0,83,0.00,,---,0.01,VWS V14.01,2013-09-07 13:10:00,
2013-09-07 06:11:00,66.6,61.6,29.80,NNE,13,0.0,0.0,84,0.00,,---,0.01,VWS V14.01,2013-09-07 13:11:00,
2013-09-07 06:15:00,66.5,61.5,29.80,NNE,13,0.0,0.0,84,0.00,,---,0.01,VWS V14.01,2013-09-07 13:15:00,
2013-09-07 06:16:00,66.3,61.7,29.81,NNE,13,0.0,0.0,85,0.00,,---,0.01,VWS V14.01,2013-09-07 13:16:00,
2013-09-07 06:20:00,66.2,61.6,29.80,NNE,13,0.0,0.0,85,0.00,,---,0.01,VWS V14.01,2013-09-07 13:20:00,
2013-09-07 06:21:00,66.0,61.4,29.80,NNE,13,0.0,0.0,85,0.00,,---,0.01,VWS V14.01,2013-09-07 13:21:00,
2013-09-07 06:25:00,66.0,61.4,29.80,NNE,13,0.0,0.0,85,0.00,,---,0.01,VWS V14.01,2013-09-07 13:25:00,
2013-09-07 06:26:00,66.0,61.4,29.80,NNE,13,0.0,0.0,85,0.00,,---,0.01,VWS V14.01,2013-09-07 13:26:00,
2013-09-07 06:30:00,66.0,61.7,29.80,NNE,13,0.0,0.0,86,0.00,,---,0.01,VWS V14.01,2013-09-07 13:30:00,
2013-09-07 06:31:00,66.0,61.7,29.80,NNE,13,0.0,0.0,86,0.00,,---,0.01,VWS V14.01,2013-09-07 13:31:00,
2013-09-07 06:35:00,65.9,61.6,29.80,NNE,13,0.0,0.0,86,0.00,,---,0.01,VWS V14.01,2013-09-07 13:35:00,
2013-09-07 06:36:00,65.9,61.6,29.80,NNE,13,0.0,0.0,86,0.00,,---,0.01,VWS V14.01,2013-09-07 13:36:00,
2013-09-07 06:40:00,65.8,61.5,29.80,NNE,13,0.0,0.0,86,0.00,,---,0.01,VWS V14.01,2013-09-07 13:40:00,
2013-09-07 06:41:00,65.8,61.5,29.80,NNE,13,0.0,0.0,86,0.00,,---,0.01,VWS V14.01,2013-09-07 13:41:00,
2013-09-07 06:45:00,65.8,61.5,29.80,NNE,13,0.0,0.0,86,0.00,,---,0.01,VWS V14.01,2013-09-07 13:45:00,
2013-09-07 06:46:00,65.7,61.7,29.81,NNE,13,0.0,0.0,87,0.00,,---,0.01,VWS V14.01,2013-09-07 13:46:00,
2013-09-07 06:50:00,65.7,61.7,29.81,NNE,13,0.0,0.0,87,0.00,,---,0.01,VWS V14.01,2013-09-07 13:50:00,
2013-09-07 06:51:00,65.7,61.7,29.81,NNE,13,3.0,4.0,87,0.00,,---,0.01,VWS V14.01,2013-09-07 13:51:00,
2013-09-07 06:55:00,65.7,61.7,29.81,NNE,17,3.0,5.0,87,0.00,,---,0.01,VWS V14.01,2013-09-07 13:55:00,
2013-09-07 06:56:00,65.8,62.2,29.81,South,177,3.0,5.0,88,0.00,,---,0.01,VWS V14.01,2013-09-07 13:56:00,
2013-09-07 07:00:00,65.9,62.2,29.81,SSW,192,2.0,6.0,88,0.00,,---,0.01,VWS V14.01,2013-09-07 14:00:00,
2013-09-07 07:01:00,65.9,62.2,29.81,SSW,192,2.0,4.0,88,0.00,,---,0.01,VWS V14.01,2013-09-07 14:01:00,
2013-09-07 07:05:00,65.9,62.2,29.81,SSW,192,2.0,4.0,88,0.00,,---,0.01,VWS V14.01,2013-09-07 14:05:00,
2013-09-07 07:06:00,65.8,61.8,29.81,SSW,192,1.0,3.0,87,0.00,,---,0.01,VWS V14.01,2013-09-07 14:06:00,
2013-09-07 07:10:00,65.8,61.8,29.81,SSW,193,2.0,3.0,87,0.00,,---,0.01,VWS V14.01,2013-09-07 14:10:00,
2013-09-07 07:11:00,65.8,61.8,29.81,SSW,193,2.0,4.0,87,0.00,,---,0.01,VWS V14.01,2013-09-07 14:11:00,
2013-09-07 07:15:00,65.8,61.8,29.81,SSW,192,0.0,4.0,87,0.01,,---,0.02,VWS V14.01,2013-09-07 14:15:00,
2013-09-07 07:16:00,65.6,61.6,29.81,SSW,192,0.0,0.0,87,0.01,,---,0.02,VWS V14.01,2013-09-07 14:16:00,
2013-09-07 07:20:00,65.6,61.6,29.81,SSW,193,0.0,0.0,87,0.01,,---,0.02,VWS V14.01,2013-09-07 14:20:00,
2013-09-07 07:21:00,65.5,61.5,29.80,SSW,193,0.0,0.0,87,0.01,,---,0.02,VWS V14.01,2013-09-07 14:21:00,
2013-09-07 07:25:00,65.5,61.5,29.80,SSW,193,0.0,0.0,87,0.01,,---,0.02,VWS V14.01,2013-09-07 14:25:00,
2013-09-07 07:26:00,65.4,61.8,29.80,SSW,193,0.0,0.0,88,0.01,,---,0.02,VWS V14.01,2013-09-07 14:26:00,
2013-09-07 07:30:00,65.4,61.8,29.80,SSW,193,0.0,0.0,88,0.01,,---,0.02,VWS V14.01,2013-09-07 14:30:00,
2013-09-07 07:31:00,65.4,61.4,29.80,SSW,193,0.0,0.0,87,0.01,,---,0.02,VWS V14.01,2013-09-07 14:31:00,
2013-09-07 07:35:00,65.4,61.8,29.81,SSW,193,0.0,0.0,88,0.01,,---,0.02,VWS V14.01,2013-09-07 14:35:00,
2013-09-07 07:36:00,65.5,61.5,29.81,SSW,192,0.0,0.0,87,0.01,,---,0.02,VWS V14.01,2013-09-07 14:36:00,
2013-09-07 07:40:00,65.5,61.5,29.81,SSW,193,0.0,0.0,87,0.01,,---,0.02,VWS V14.01,2013-09-07 14:40:00,
2013-09-07 07:41:00,65.6,61.6,29.81,SSW,193,0.0,0.0,87,0.01,,---,0.02,VWS V14.01,2013-09-07 14:41:00,
2013-09-07 07:45:00,65.7,61.7,29.81,SSW,193,0.0,0.0,87,0.01,,---,0.02,VWS V14.01,2013-09-07 14:45:00,
2013-09-07 07:46:00,65.8,61.8,29.81,SSW,193,0.0,0.0,87,0.01,,---,0.02,VWS V14.01,2013-09-07 14:46:00,
2013-09-07 07:50:00,65.9,61.9,29.81,SSW,192,0.0,0.0,87,0.01,,---,0.02,VWS V14.01,2013-09-07 14:50:00,
2013-09-07 07:51:00,65.9,61.6,29.80,SSW,192,0.0,0.0,86,0.01,,---,0.02,VWS V14.01,2013-09-07 14:51:00,
2013-09-07 07:55:00,66.0,61.4,29.80,SSW,192,0.0,0.0,85,0.01,,---,0.02,VWS V14.01,2013-09-07 14:55:00,
2013-09-07 07:56:00,66.1,61.5,29.80,SSW,192,0.0,0.0,85,0.01,,---,0.02,VWS V14.01,2013-09-07 14:56:00,
2013-09-07 08:00:00,66.1,61.5,29.81,SSW,193,0.0,0.0,85,0.01,,---,0.02,VWS V14.01,2013-09-07 15:00:00,
2013-09-07 08:01:00,66.2,61.6,29.81,SSW,192,0.0,0.0,85,0.01,,---,0.02,VWS V14.01,2013-09-07 15:01:00,
2013-09-07 08:05:00,66.2,61.6,29.81,SSW,193,0.0,0.0,85,0.01,,---,0.02,VWS V14.01,2013-09-07 15:05:00,
2013-09-07 08:06:00,66.3,61.7,29.81,SSW,193,1.0,3.0,85,0.01,,---,0.02,VWS V14.01,2013-09-07 15:06:00,
2013-09-07 08:10:00,66.3,61.7,29.81,SSW,192,2.0,3.0,85,0.01,,---,0.02,VWS V14.01,2013-09-07 15:10:00,
2013-09-07 08:11:00,66.3,61.7,29.81,SSW,194,1.0,4.0,85,0.01,,---,0.02,VWS V14.01,2013-09-07 15:11:00,
2013-09-07 08:15:00,66.4,61.8,29.81,SSW,194,0.0,4.0,85,0.01,,---,0.02,VWS V14.01,2013-09-07 15:15:00,
2013-09-07 08:16:00,66.4,61.8,29.81,SSW,194,0.0,4.0,85,0.00,,---,0.02,VWS V14.01,2013-09-07 15:16:00,
2013-09-07 08:20:00,66.4,61.8,29.81,SSW,194,0.0,4.0,85,0.00,,---,0.02,VWS V14.01,2013-09-07 15:20:00,
2013-09-07 08:21:00,66.5,61.9,29.81,SSW,194,0.0,0.0,85,0.00,,---,0.02,VWS V14.01,2013-09-07 15:21:00,
2013-09-07 08:25:00,66.5,61.9,29.81,SSW,194,0.0,0.0,85,0.00,,---,0.02,VWS V14.01,2013-09-07 15:25:00,
2013-09-07 08:26:00,66.5,61.9,29.82,SSW,194,0.0,3.0,85,0.00,,---,0.02,VWS V14.01,2013-09-07 15:26:00,
2013-09-07 08:30:00,66.6,62.0,29.82,SSW,194,0.0,3.0,85,0.00,,---,0.02,VWS V14.01,2013-09-07 15:30:00,
2013-09-07 08:31:00,66.7,62.0,29.82,SSW,194,0.0,0.0,85,0.00,,---,0.02,VWS V14.01,2013-09-07 15:31:00,
2013-09-07 08:35:00,66.8,61.8,29.82,SSW,194,0.0,0.0,84,0.00,,---,0.02,VWS V14.01,2013-09-07 15:35:00,
2013-09-07 08:36:00,66.9,61.9,29.82,SSW,194,2.0,3.0,84,0.00,,---,0.02,VWS V14.01,2013-09-07 15:36:00,
2013-09-07 08:40:00,67.0,61.7,29.82,SSW,194,0.0,3.0,83,0.00,,---,0.02,VWS V14.01,2013-09-07 15:40:00,
2013-09-07 08:41:00,67.2,61.5,29.82,SSW,194,0.0,0.0,82,0.00,,---,0.02,VWS V14.01,2013-09-07 15:41:00,
2013-09-07 08:45:00,67.3,61.6,29.82,SSW,195,0.0,0.0,82,0.00,,---,0.02,VWS V14.01,2013-09-07 15:45:00,
2013-09-07 08:46:00,67.5,61.8,29.82,SSW,195,0.0,0.0,82,0.00,,---,0.02,VWS V14.01,2013-09-07 15:46:00,
2013-09-07 08:50:00,67.6,61.6,29.82,SSW,195,0.0,0.0,81,0.00,,---,0.02,VWS V14.01,2013-09-07 15:50:00,
2013-09-07 08:51:00,67.7,61.3,29.83,SSW,195,0.0,0.0,80,0.00,,---,0.02,VWS V14.01,2013-09-07 15:51:00,
2013-09-07 08:55:00,67.7,61.3,29.83,SSW,195,0.0,0.0,80,0.00,,---,0.02,VWS V14.01,2013-09-07 15:55:00,
2013-09-07 08:56:00,67.9,61.5,29.83,SSW,195,0.0,0.0,80,0.00,,---,0.02,VWS V14.01,2013-09-07 15:56:00,
2013-09-07 09:00:00,68.0,61.2,29.83,SSW,195,0.0,0.0,79,0.00,,---,0.02,VWS V14.01,2013-09-07 16:00:00,
2013-09-07 09:01:00,68.4,61.6,29.84,SSW,194,1.0,1.0,79,0.00,,---,0.02,VWS V14.01,2013-09-07 16:01:00,
2013-09-07 09:05:00,68.4,61.3,29.84,SSW,194,0.0,1.0,78,0.00,,---,0.02,VWS V14.01,2013-09-07 16:05:00,
2013-09-07 09:06:00,68.6,61.5,29.83,SSW,196,0.0,3.0,78,0.00,,---,0.02,VWS V14.01,2013-09-07 16:06:00,
2013-09-07 09:10:00,68.7,61.6,29.83,SSW,196,0.0,3.0,78,0.00,,---,0.02,VWS V14.01,2013-09-07 16:10:00,
2013-09-07 09:11:00,69.0,61.9,29.84,SSW,194,0.0,3.0,78,0.00,,---,0.02,VWS V14.01,2013-09-07 16:11:00,
2013-09-07 09:15:00,69.0,61.5,29.84,SSW,198,3.0,4.0,77,0.00,,---,0.02,VWS V14.01,2013-09-07 16:15:00,
2013-09-07 09:16:00,69.1,61.6,29.83,South,186,0.0,4.0,77,0.00,,---,0.02,VWS V14.01,2013-09-07 16:16:00,
2013-09-07 09:20:00,69.1,61.6,29.84,SSW,198,2.0,4.0,77,0.00,,---,0.02,VWS V14.01,2013-09-07 16:20:00,
2013-09-07 09:21:00,69.2,61.7,29.84,South,183,0.0,6.0,77,0.00,,---,0.02,VWS V14.01,2013-09-07 16:21:00,
2013-09-07 09:25:00,69.3,61.8,29.84,SSW,196,4.0,6.0,77,0.00,,---,0.02,VWS V14.01,2013-09-07 16:25:00,
2013-09-07 09:26:00,69.4,61.5,29.84,SSW,204,2.0,6.0,76,0.00,,---,0.02,VWS V14.01,2013-09-07 16:26:00,
2013-09-07 09:30:00,69.4,60.8,29.84,SW,216,3.0,6.0,74,0.00,,---,0.02,VWS V14.01,2013-09-07 16:30:00,
2013-09-07 09:31:00,69.4,60.8,29.84,SSW,194,2.0,5.0,74,0.00,,---,0.02,VWS V14.01,2013-09-07 16:31:00,
2013-09-07 09:35:00,69.5,60.9,29.84,SSW,194,4.0,5.0,74,0.00,,---,0.02,VWS V14.01,2013-09-07 16:35:00,
2013-09-07 09:36:00,69.6,61.0,29.84,SSW,201,0.0,4.0,74,0.00,,---,0.02,VWS V14.01,2013-09-07 16:36:00,
2013-09-07 09:40:00,69.8,61.2,29.84,SSW,209,1.0,4.0,74,0.00,,---,0.02,VWS V14.01,2013-09-07 16:40:00,
2013-09-07 09:41:00,70.1,61.4,29.84,South,190,0.0,3.0,74,0.00,,---,0.02,VWS V14.01,2013-09-07 16:41:00,
2013-09-07 09:45:00,70.3,61.6,29.84,South,190,0.0,3.0,74,0.00,,---,0.02,VWS V14.01,2013-09-07 16:45:00,
2013-09-07 09:46:00,70.4,61.0,29.84,SSW,209,0.0,6.0,72,0.00,,---,0.02,VWS V14.01,2013-09-07 16:46:00,
2013-09-07 09:50:00,70.3,60.9,29.84,SSW,210,3.0,6.0,72,0.00,,---,0.02,VWS V14.01,2013-09-07 16:50:00,
2013-09-07 09:51:00,70.3,60.9,29.84,SSW,211,4.0,4.0,72,0.00,,---,0.02,VWS V14.01,2013-09-07 16:51:00,
2013-09-07 09:55:00,70.2,60.8,29.84,SSW,209,1.0,4.0,72,0.00,,---,0.02,VWS V14.01,2013-09-07 16:55:00,
2013-09-07 09:56:00,70.1,61.0,29.84,SSW,209,0.0,4.0,73,0.00,,---,0.02,VWS V14.01,2013-09-07 16:56:00,
2013-09-07 10:00:00,70.0,61.0,29.84,SSW,208,3.0,4.0,73,0.00,,---,0.02,VWS V14.01,2013-09-07 17:00:00,
2013-09-07 10:01:00,70.0,61.0,29.84,SSW,207,0.0,6.0,73,0.00,,---,0.02,VWS V14.01,2013-09-07 17:01:00,
2013-09-07 10:05:00,70.0,61.3,29.84,SSW,206,0.0,6.0,74,0.00,,---,0.02,VWS V14.01,2013-09-07 17:05:00,
2013-09-07 10:06:00,70.2,61.5,29.84,SSW,206,0.0,0.0,74,0.00,,---,0.02,VWS V14.01,2013-09-07 17:06:00,
2013-09-07 10:10:00,70.3,61.6,29.84,SSW,206,0.0,0.0,74,0.00,,---,0.02,VWS V14.01,2013-09-07 17:10:00,
2013-09-07 10:11:00,70.4,61.7,29.84,SSW,207,0.0,1.0,74,0.00,,---,0.02,VWS V14.01,2013-09-07 17:11:00,
2013-09-07 10:15:00,70.4,62.1,29.84,SSW,207,0.0,4.0,75,0.00,,---,0.02,VWS V14.01,2013-09-07 17:15:00,
2013-09-07 10:16:00,70.5,62.2,29.84,SSW,207,0.0,0.0,75,0.00,,---,0.02,VWS V14.01,2013-09-07 17:16:00,
2013-09-07 10:20:00,70.5,62.2,29.84,SSW,207,0.0,0.0,75,0.00,,---,0.02,VWS V14.01,2013-09-07 17:20:00,
2013-09-07 10:21:00,70.4,61.7,29.84,SSW,209,0.0,0.0,74,0.00,,---,0.02,VWS V14.01,2013-09-07 17:21:00,
2013-09-07 10:25:00,70.4,61.7,29.84,SSW,209,0.0,0.0,74,0.00,,---,0.02,VWS V14.01,2013-09-07 17:25:00,
2013-09-07 10:26:00,70.2,61.9,29.84,SSW,209,0.0,3.0,75,0.00,,---,0.02,VWS V14.01,2013-09-07 17:26:00,
2013-09-07 10:30:00,70.2,61.9,29.84,SSW,209,0.0,3.0,75,0.00,,---,0.02,VWS V14.01,2013-09-07 17:30:00,
2013-09-07 10:31:00,70.3,62.0,29.84,SSW,207,0.0,2.0,75,0.00,,---,0.02,VWS V14.01,2013-09-07 17:31:00,
2013-09-07 10:35:00,70.3,62.0,29.84,SSW,206,0.0,2.0,75,0.00,,---,0.02,VWS V14.01,2013-09-07 17:35:00,
2013-09-07 10:36:00,70.4,62.1,29.84,South,190,0.0,2.0,75,0.00,,---,0.02,VWS V14.01,2013-09-07 17:36:00,
2013-09-07 10:40:00,70.4,62.1,29.84,SSW,198,2.0,3.0,75,0.00,,---,0.02,VWS V14.01,2013-09-07 17:40:00,
2013-09-07 10:41:00,70.2,61.9,29.84,SW,221,0.0,6.0,75,0.00,,---,0.02,VWS V14.01,2013-09-07 17:41:00,
2013-09-07 10:45:00,70.2,61.9,29.84,SW,215,0.0,6.0,75,0.00,,---,0.02,VWS V14.01,2013-09-07 17:45:00,
2013-09-07 10:46:00,70.2,61.5,29.84,South,174,0.0,3.0,74,0.00,,---,0.02,VWS V14.01,2013-09-07 17:46:00,
2013-09-07 10:50:00,70.3,62.0,29.84,South,175,0.0,3.0,75,0.00,,---,0.02,VWS V14.01,2013-09-07 17:50:00,
2013-09-07 10:51:00,70.5,61.8,29.84,SSW,202,2.0,6.0,74,0.00,,---,0.02,VWS V14.01,2013-09-07 17:51:00,
2013-09-07 10:55:00,70.6,61.9,29.84,SSW,209,4.0,6.0,74,0.00,,---,0.02,VWS V14.01,2013-09-07 17:55:00,
2013-09-07 10:56:00,70.8,62.1,29.84,SW,227,5.0,7.0,74,0.00,,---,0.02,VWS V14.01,2013-09-07 17:56:00,
2013-09-07 11:00:00,70.8,62.1,29.84,SW,233,2.0,7.0,74,0.00,,---,0.02,VWS V14.01,2013-09-07 18:00:00,
2013-09-07 11:01:00,70.9,61.8,29.84,SSW,204,4.0,9.0,73,0.00,,---,0.02,VWS V14.01,2013-09-07 18:01:00,
2013-09-07 11:05:00,71.0,61.5,29.84,SW,215,3.0,9.0,72,0.00,,---,0.02,VWS V14.01,2013-09-07 18:05:00,
2013-09-07 11:06:00,71.0,61.9,29.84,South,179,0.0,6.0,73,0.00,,---,0.02,VWS V14.01,2013-09-07 18:06:00,
2013-09-07 11:10:00,71.2,62.5,29.84,South,191,4.0,6.0,74,0.00,,---,0.02,VWS V14.01,2013-09-07 18:10:00,
2013-09-07 11:11:00,71.2,62.1,29.84,SSW,211,0.0,7.0,73,0.00,,---,0.02,VWS V14.01,2013-09-07 18:11:00,
2013-09-07 11:15:00,71.1,62.4,29.84,SW,214,5.0,9.0,74,0.00,,---,0.02,VWS V14.01,2013-09-07 18:15:00,
2013-09-07 11:16:00,71.0,61.9,29.84,SW,220,0.0,5.0,73,0.00,,---,0.02,VWS V14.01,2013-09-07 18:16:00,
2013-09-07 11:20:00,71.0,62.3,29.84,SW,221,0.0,5.0,74,0.00,,---,0.02,VWS V14.01,2013-09-07 18:20:00,
2013-09-07 11:21:00,70.9,62.2,29.84,SSW,203,1.0,6.0,74,0.00,,---,0.02,VWS V14.01,2013-09-07 18:21:00,
2013-09-07 11:25:00,70.8,62.1,29.84,SSW,195,1.0,6.0,74,0.00,,---,0.02,VWS V14.01,2013-09-07 18:25:00,
2013-09-07 11:26:00,70.8,61.7,29.84,SSW,200,0.0,3.0,73,0.00,,---,0.02,VWS V14.01,2013-09-07 18:26:00,
2013-09-07 11:30:00,70.8,61.7,29.84,SSW,201,0.0,4.0,73,0.00,,---,0.02,VWS V14.01,2013-09-07 18:30:00,
2013-09-07 11:31:00,71.0,61.9,29.84,SW,215,7.0,7.0,73,0.00,,---,0.02,VWS V14.01,2013-09-07 18:31:00,
2013-09-07 11:35:00,71.0,61.5,29.84,SW,214,0.0,7.0,72,0.00,,---,0.02,VWS V14.01,2013-09-07 18:35:00,
2013-09-07 11:36:00,71.1,61.6,29.84,SSW,211,1.0,8.0,72,0.00,,---,0.02,VWS V14.01,2013-09-07 18:36:00,
2013-09-07 11:40:00,71.2,61.7,29.84,WSW,239,5.0,8.0,72,0.00,,---,0.02,VWS V14.01,2013-09-07 18:40:00,
2013-09-07 11:41:00,71.3,61.8,29.84,SW,217,6.0,7.0,72,0.00,,---,0.02,VWS V14.01,2013-09-07 18:41:00,
2013-09-07 11:45:00,71.3,61.8,29.84,SW,216,3.0,7.0,72,0.00,,---,0.02,VWS V14.01,2013-09-07 18:45:00,
2013-09-07 11:46:00,71.4,61.1,29.84,SW,222,2.0,7.0,70,0.00,,---,0.02,VWS V14.01,2013-09-07 18:46:00,
2013-09-07 11:50:00,71.4,61.5,29.84,SW,221,6.0,7.0,71,0.00,,---,0.02,VWS V14.01,2013-09-07 18:50:00,
2013-09-07 11:51:00,71.5,61.2,29.84,SW,235,3.0,6.0,70,0.00,,---,0.02,VWS V14.01,2013-09-07 18:51:00,
2013-09-07 11:55:00,71.6,61.3,29.84,SSW,213,1.0,6.0,70,0.00,,---,0.02,VWS V14.01,2013-09-07 18:55:00,
2013-09-07 11:56:00,71.5,61.2,29.84,WSW,247,7.0,7.0,70,0.00,,---,0.02,VWS V14.01,2013-09-07 18:56:00,
2013-09-07 12:00:00,71.4,61.1,29.84,WSW,252,5.0,8.0,70,0.00,,---,0.02,VWS V14.01,2013-09-07 19:00:00,
2013-09-07 12:01:00,71.3,61.4,29.84,SSW,211,0.0,7.0,71,0.00,,---,0.02,VWS V14.01,2013-09-07 19:01:00,
2013-09-07 12:05:00,71.4,60.3,29.84,WSW,252,6.0,9.0,68,0.00,,---,0.02,VWS V14.01,2013-09-07 19:05:00,
2013-09-07 12:06:00,71.3,61.0,29.84,WSW,242,9.0,9.0,70,0.00,,---,0.02,VWS V14.01,2013-09-07 19:06:00,
2013-09-07 12:10:00,71.2,61.3,29.84,SW,218,0.0,9.0,71,0.00,,---,0.02,VWS V14.01,2013-09-07 19:10:00,
2013-09-07 12:11:00,71.1,62.0,29.84,SW,233,4.0,7.0,73,0.00,,---,0.02,VWS V14.01,2013-09-07 19:11:00,
2013-09-07 12:15:00,71.0,62.3,29.84,SW,235,3.0,7.0,74,0.00,,---,0.02,VWS V14.01,2013-09-07 19:15:00,
2013-09-07 12:16:00,71.0,62.3,29.84,WSW,237,4.0,6.0,74,0.00,,---,0.02,VWS V14.01,2013-09-07 19:16:00,
2013-09-07 12:20:00,70.7,62.0,29.84,SW,236,0.0,6.0,74,0.00,,---,0.02,VWS V14.01,2013-09-07 19:20:00,
2013-09-07 12:21:00,70.5,61.8,29.83,SW,225,0.0,5.0,74,0.00,,---,0.02,VWS V14.01,2013-09-07 19:21:00,
2013-09-07 12:25:00,70.6,61.5,29.84,WSW,255,0.0,6.0,73,0.00,,---,0.02,VWS V14.01,2013-09-07 19:25:00,
2013-09-07 12:26:00,70.8,61.3,29.84,SW,230,4.0,5.0,72,0.00,,---,0.02,VWS V14.01,2013-09-07 19:26:00,
2013-09-07 12:30:00,71.0,61.1,29.84,SW,230,1.0,5.0,71,0.00,,---,0.02,VWS V14.01,2013-09-07 19:30:00,
2013-09-07 12:31:00,71.0,60.3,29.83,WSW,242,5.0,5.0,69,0.00,,---,0.02,VWS V14.01,2013-09-07 19:31:00,
2013-09-07 12:35:00,70.9,60.6,29.83,WSW,250,0.0,6.0,70,0.00,,---,0.02,VWS V14.01,2013-09-07 19:35:00,
2013-09-07 12:36:00,70.9,61.4,29.83,WSW,242,2.0,4.0,72,0.00,,---,0.02,VWS V14.01,2013-09-07 19:36:00,
2013-09-07 12:40:00,70.9,61.0,29.83,West,265,3.0,5.0,71,0.00,,---,0.02,VWS V14.01,2013-09-07 19:40:00,
2013-09-07 12:41:00,71.0,61.1,29.83,West,265,2.0,5.0,71,0.00,,---,0.02,VWS V14.01,2013-09-07 19:41:00,
2013-09-07 12:45:00,71.2,60.9,29.83,West,267,0.0,5.0,70,0.00,,---,0.02,VWS V14.01,2013-09-07 19:45:00,
2013-09-07 12:46:00,71.5,60.4,29.83,West,277,2.0,4.0,68,0.00,,---,0.02,VWS V14.01,2013-09-07 19:46:00,
2013-09-07 12:50:00,71.5,60.0,29.83,WNW,286,5.0,8.0,67,0.00,,---,0.02,VWS V14.01,2013-09-07 19:50:00,
2013-09-07 12:51:00,71.5,60.4,29.83,West,271,0.0,6.0,68,0.00,,---,0.02,VWS V14.01,2013-09-07 19:51:00,
2013-09-07 12:55:00,71.5,60.4,29.83,West,263,0.0,6.0,68,0.00,,---,0.02,VWS V14.01,2013-09-07 19:55:00,
2013-09-07 12:56:00,71.7,60.6,29.83,West,259,2.0,4.0,68,0.00,,---,0.02,VWS V14.01,2013-09-07 19:56:00,
2013-09-07 13:00:00,72.0,60.5,29.83,West,259,2.0,9.0,67,0.00,,---,0.02,VWS V14.01,2013-09-07 20:00:00,
2013-09-07 13:01:00,72.3,60.7,29.83,West,262,4.0,6.0,67,0.00,,---,0.02,VWS V14.01,2013-09-07 20:01:00,
2013-09-07 13:05:00,72.5,60.5,29.83,SW,233,9.0,10.0,66,0.00,,---,0.02,VWS V14.01,2013-09-07 20:05:00,
2013-09-07 13:06:00,73.0,60.5,29.82,WNW,284,5.0,12.0,65,0.00,,---,0.02,VWS V14.01,2013-09-07 20:06:00,
2013-09-07 13:10:00,73.4,60.9,29.82,West,277,2.0,12.0,65,0.00,,---,0.02,VWS V14.01,2013-09-07 20:10:00,
2013-09-07 13:11:00,73.8,60.9,29.82,West,268,5.0,11.0,64,0.00,,---,0.02,VWS V14.01,2013-09-07 20:11:00,
2013-09-07 13:15:00,73.7,60.3,29.82,WSW,254,2.0,11.0,63,0.00,,---,0.02,VWS V14.01,2013-09-07 20:15:00,
2013-09-07 13:16:00,73.7,60.3,29.82,WSW,255,5.0,7.0,63,0.00,,---,0.02,VWS V14.01,2013-09-07 20:16:00,
2013-09-07 13:20:00,73.7,60.3,29.82,West,263,0.0,7.0,63,0.00,,---,0.02,VWS V14.01,2013-09-07 20:20:00,
2013-09-07 13:21:00,74.0,60.6,29.82,West,265,0.0,8.0,63,0.00,,---,0.02,VWS V14.01,2013-09-07 20:21:00,
2013-09-07 13:25:00,74.2,60.4,29.82,WNW,290,0.0,8.0,62,0.00,,---,0.02,VWS V14.01,2013-09-07 20:25:00,
2013-09-07 13:26:00,74.3,60.0,29.82,WNW,292,10.0,10.0,61,0.00,,---,0.02,VWS V14.01,2013-09-07 20:26:00,
2013-09-07 13:30:00,74.6,60.3,29.82,WNW,300,3.0,11.0,61,0.00,,---,0.02,VWS V14.01,2013-09-07 20:30:00,
2013-09-07 13:31:00,75.0,60.2,29.82,West,272,0.0,10.0,60,0.00,,---,0.02,VWS V14.01,2013-09-07 20:31:00,
2013-09-07 13:35:00,75.0,59.7,29.82,NW,319,4.0,10.0,59,0.00,,---,0.02,VWS V14.01,2013-09-07 20:35:00,
2013-09-07 13:36:00,75.3,60.0,29.82,WNW,289,8.0,8.0,59,0.00,,---,0.02,VWS V14.01,2013-09-07 20:36:00,
2013-09-07 13:40:00,75.7,59.9,29.82,WNW,285,6.0,8.0,58,0.00,,---,0.02,VWS V14.01,2013-09-07 20:40:00,
2013-09-07 13:41:00,76.2,59.9,29.81,WSW,249,4.0,6.0,57,0.00,,---,0.02,VWS V14.01,2013-09-07 20:41:00,
2013-09-07 13:45:00,76.5,60.2,29.81,WNW,296,5.0,11.0,57,0.00,,---,0.02,VWS V14.01,2013-09-07 20:45:00,
2013-09-07 13:46:00,76.1,58.8,29.81,WNW,296,1.0,7.0,55,0.00,,---,0.02,VWS V14.01,2013-09-07 20:46:00,
2013-09-07 13:50:00,75.9,58.6,29.81,NW,304,2.0,7.0,55,0.00,,---,0.02,VWS V14.01,2013-09-07 20:50:00,
2013-09-07 13:51:00,75.5,58.7,29.81,NW,307,4.0,6.0,56,0.00,,---,0.02,VWS V14.01,2013-09-07 20:51:00,
2013-09-07 13:55:00,75.3,58.5,29.81,NW,311,0.0,6.0,56,0.00,,---,0.02,VWS V14.01,2013-09-07 20:55:00,
2013-09-07 13:56:00,75.3,58.5,29.81,NW,318,4.0,7.0,56,0.00,,---,0.02,VWS V14.01,2013-09-07 20:56:00,
2013-09-07 14:00:00,75.1,57.8,29.81,NW,320,0.0,7.0,55,0.00,,---,0.02,VWS V14.01,2013-09-07 21:00:00,
2013-09-07 14:01:00,74.8,58.6,29.80,NW,320,0.0,6.0,57,0.00,,---,0.02,VWS V14.01,2013-09-07 21:01:00,
2013-09-07 14:05:00,74.7,58.0,29.80,WNW,287,3.0,8.0,56,0.00,,---,0.02,VWS V14.01,2013-09-07 21:05:00,
2013-09-07 14:06:00,74.5,58.3,29.80,NW,304,4.0,7.0,57,0.00,,---,0.02,VWS V14.01,2013-09-07 21:06:00,
2013-09-07 14:10:00,74.5,58.3,29.80,NW,304,1.0,7.0,57,0.00,,---,0.02,VWS V14.01,2013-09-07 21:10:00,
2013-09-07 14:11:00,74.7,59.0,29.80,WNW,301,4.0,7.0,58,0.00,,---,0.02,VWS V14.01,2013-09-07 21:11:00,
2013-09-07 14:15:00,74.9,59.1,29.80,NW,321,5.0,7.0,58,0.00,,---,0.02,VWS V14.01,2013-09-07 21:15:00,
2013-09-07 14:16:00,74.9,58.7,29.80,NW,323,1.0,7.0,57,0.00,,---,0.02,VWS V14.01,2013-09-07 21:16:00,
2013-09-07 14:20:00,75.0,58.8,29.79,WNW,298,8.0,8.0,57,0.00,,---,0.02,VWS V14.01,2013-09-07 21:20:00,
2013-09-07 14:21:00,75.3,59.5,29.79,NW,315,3.0,9.0,58,0.00,,---,0.02,VWS V14.01,2013-09-07 21:21:00,
2013-09-07 14:25:00,75.5,59.2,29.79,WNW,302,3.0,9.0,57,0.00,,---,0.02,VWS V14.01,2013-09-07 21:25:00,
2013-09-07 14:26:00,75.5,58.7,29.79,West,277,1.0,10.0,56,0.00,,---,0.02,VWS V14.01,2013-09-07 21:26:00,
2013-09-07 14:30:00,75.3,59.5,29.79,WNW,289,7.0,10.0,58,0.00,,---,0.02,VWS V14.01,2013-09-07 21:30:00,
2013-09-07 14:31:00,75.5,59.2,29.79,WNW,300,10.0,12.0,57,0.00,,---,0.02,VWS V14.01,2013-09-07 21:31:00,
2013-09-07 14:35:00,75.7,59.4,29.79,West,270,5.0,12.0,57,0.00,,---,0.02,VWS V14.01,2013-09-07 21:35:00,
2013-09-07 14:36:00,75.6,59.3,29.79,WNW,294,10.0,10.0,57,0.00,,---,0.02,VWS V14.01,2013-09-07 21:36:00,
2013-09-07 14:40:00,75.6,59.3,29.78,WNW,300,6.0,12.0,57,0.00,,---,0.02,VWS V14.01,2013-09-07 21:40:00,
2013-09-07 14:41:00,75.4,59.6,29.78,NW,309,1.0,9.0,58,0.00,,---,0.02,VWS V14.01,2013-09-07 21:41:00,
2013-09-07 14:45:00,75.4,60.1,29.78,NW,317,7.0,9.0,59,0.00,,---,0.02,VWS V14.01,2013-09-07 21:45:00,
2013-09-07 14:46:00,75.2,59.9,29.78,WNW,288,5.0,10.0,59,0.00,,---,0.02,VWS V14.01,2013-09-07 21:46:00,
2013-09-07 14:50:00,75.0,59.7,29.78,WNW,288,2.0,10.0,59,0.00,,---,0.02,VWS V14.01,2013-09-07 21:50:00,
2013-09-07 14:51:00,74.8,59.5,29.78,WNW,287,4.0,10.0,59,0.00,,---,0.02,VWS V14.01,2013-09-07 21:51:00,
2013-09-07 14:55:00,74.8,59.5,29.78,WNW,291,4.0,10.0,59,0.00,,---,0.02,VWS V14.01,2013-09-07 21:55:00,
2013-09-07 14:56:00,74.9,58.7,29.78,NW,311,2.0,9.0,57,0.00,,---,0.02,VWS V14.01,2013-09-07 21:56:00,
2013-09-07 15:00:00,75.0,59.2,29.77,NW,318,5.0,9.0,58,0.00,,---,0.02,VWS V14.01,2013-09-07 22:00:00,
2013-09-07 15:01:00,75.1,59.3,29.77,NW,318,3.0,10.0,58,0.00,,---,0.02,VWS V14.01,2013-09-07 22:01:00,
2013-09-07 15:05:00,75.1,58.8,29.77,WNW,299,4.0,10.0,57,0.00,,---,0.02,VWS V14.01,2013-09-07 22:05:00,
2013-09-07 15:06:00,75.3,59.0,29.77,NW,322,3.0,7.0,57,0.00,,---,0.02,VWS V14.01,2013-09-07 22:06:00,
2013-09-07 15:10:00,75.3,59.5,29.77,WNW,298,5.0,7.0,58,0.00,,---,0.02,VWS V14.01,2013-09-07 22:10:00,
2013-09-07 15:11:00,75.5,59.7,29.77,NW,315,1.0,10.0,58,0.00,,---,0.02,VWS V14.01,2013-09-07 22:11:00,
2013-09-07 15:15:00,75.7,59.4,29.77,NW,311,6.0,10.0,57,0.00,,---,0.02,VWS V14.01,2013-09-07 22:15:00,
2013-09-07 15:16:00,76.2,59.4,29.77,NNW,335,3.0,10.0,56,0.00,,---,0.02,VWS V14.01,2013-09-07 22:16:00,
2013-09-07 15:20:00,76.4,59.6,29.77,WNW,283,7.0,10.0,56,0.00,,---,0.02,VWS V14.01,2013-09-07 22:20:00,
2013-09-07 15:21:00,76.5,59.7,29.77,WNW,295,6.0,12.0,56,0.00,,---,0.02,VWS V14.01,2013-09-07 22:21:00,
2013-09-07 15:25:00,76.6,59.2,29.77,WNW,286,4.0,12.0,55,0.00,,---,0.02,VWS V14.01,2013-09-07 22:25:00,
2013-09-07 15:26:00,76.5,60.2,29.77,WNW,296,4.0,9.0,57,0.00,,---,0.02,VWS V14.01,2013-09-07 22:26:00,
2013-09-07 15:30:00,76.4,59.6,29.77,WNW,285,4.0,9.0,56,0.00,,---,0.02,VWS V14.01,2013-09-07 22:30:00,
2013-09-07 15:31:00,76.0,59.2,29.77,WNW,286,7.0,11.0,56,0.00,,---,0.02,VWS V14.01,2013-09-07 22:31:00,
2013-09-07 15:35:00,75.7,58.9,29.77,West,266,4.0,11.0,56,0.00,,---,0.02,VWS V14.01,2013-09-07 22:35:00,
2013-09-07 15:36:00,75.4,58.6,29.76,West,263,0.0,10.0,56,0.00,,---,0.02,VWS V14.01,2013-09-07 22:36:00,
2013-09-07 15:40:00,75.4,59.1,29.77,WNW,295,6.0,10.0,57,0.00,,---,0.02,VWS V14.01,2013-09-07 22:40:00,
2013-09-07 15:41:00,75.6,59.3,29.76,West,261,3.0,7.0,57,0.00,,---,0.02,VWS V14.01,2013-09-07 22:41:00,
2013-09-07 15:45:00,75.7,59.4,29.77,WNW,300,6.0,10.0,57,0.00,,---,0.02,VWS V14.01,2013-09-07 22:45:00,
2013-09-07 15:46:00,75.5,59.2,29.77,WNW,284,4.0,9.0,57,0.00,,---,0.02,VWS V14.01,2013-09-07 22:46:00,
2013-09-07 15:50:00,75.3,59.5,29.77,WNW,303,5.0,9.0,58,0.00,,---,0.02,VWS V14.01,2013-09-07 22:50:00,
2013-09-07 15:51:00,75.2,59.4,29.77,WNW,284,3.0,7.0,58,0.00,,---,0.02,VWS V14.01,2013-09-07 22:51:00,
2013-09-07 15:55:00,75.0,59.7,29.76,WNW,298,1.0,6.0,59,0.00,,---,0.02,VWS V14.01,2013-09-07 22:55:00,
2013-09-07 16:00:00,75.1,59.3,29.76,WNW,294,0.0,8.0,58,0.00,,---,0.02,VWS V14.01,2013-09-07 23:00:00,
2013-09-07 16:05:00,75.3,59.5,29.76,West,267,1.0,10.0,58,0.00,,---,0.02,VWS V14.01,2013-09-07 23:05:00,
2013-09-07 16:10:00,75.2,59.4,29.76,West,271,3.0,6.0,58,0.00,,---,0.02,VWS V14.01,2013-09-07 23:10:00,
2013-09-07 16:15:00,74.9,59.1,29.76,WNW,291,0.0,6.0,58,0.00,,---,0.02,VWS V14.01,2013-09-07 23:15:00,
2013-09-07 16:20:00,74.9,59.1,29.76,NW,307,1.0,5.0,58,0.00,,---,0.02,VWS V14.01,2013-09-07 23:20:00,
2013-09-07 16:25:00,75.1,59.3,29.77,NW,311,1.0,4.0,58,0.00,,---,0.02,VWS V14.01,2013-09-07 23:25:00,
2013-09-07 16:30:00,75.2,58.4,29.77,WNW,286,2.0,7.0,56,0.00,,---,0.02,VWS V14.01,2013-09-07 23:30:00,
2013-09-07 16:35:00,74.9,58.7,29.77,WNW,290,0.0,4.0,57,0.00,,---,0.02,VWS V14.01,2013-09-07 23:35:00,
2013-09-07 16:40:00,74.8,58.1,29.77,NW,313,1.0,5.0,56,0.00,,---,0.02,VWS V14.01,2013-09-07 23:40:00,
2013-09-07 16:45:00,74.9,58.7,29.77,NW,313,0.0,2.0,57,0.00,,---,0.02,VWS V14.01,2013-09-07 23:45:00,
2013-09-07 16:50:00,75.0,58.8,29.77,NW,313,1.0,2.0,57,0.00,,---,0.02,VWS V14.01,2013-09-07 23:50:00,
2013-09-07 16:55:00,75.2,58.4,29.77,NW,313,0.0,4.0,56,0.00,,---,0.02,VWS V14.01,2013-09-07 23:55:00,
2013-09-07 17:00:00,75.1,58.3,29.77,NW,314,0.0,3.0,56,0.00,,---,0.02,VWS V14.01,2013-09-08 00:00:00,
2013-09-07 17:05:00,75.1,58.8,29.77,NW,314,3.0,4.0,57,0.00,,---,0.02,VWS V14.01,2013-09-08 00:05:00,
2013-09-07 17:10:00,75.1,58.8,29.77,NW,314,0.0,5.0,57,0.00,,---,0.02,VWS V14.01,2013-09-08 00:10:00,
2013-09-07 17:15:00,75.1,58.3,29.77,NW,315,0.0,3.0,56,0.00,,---,0.02,VWS V14.01,2013-09-08 00:15:00,
2013-09-07 17:20:00,75.0,58.3,29.77,NW,315,0.0,3.0,56,0.00,,---,0.02,VWS V14.01,2013-09-08 00:20:00,
2013-09-07 17:25:00,75.0,58.3,29.77,NW,315,0.0,0.0,56,0.00,,---,0.02,VWS V14.01,2013-09-08 00:25:00,
2013-09-07 17:30:00,75.0,58.3,29.77,NW,315,0.0,2.0,56,0.00,,---,0.02,VWS V14.01,2013-09-08 00:30:00,
2013-09-07 17:35:00,75.0,58.3,29.77,NW,315,0.0,3.0,56,0.00,,---,0.02,VWS V14.01,2013-09-08 00:35:00,
2013-09-07 17:40:00,75.0,58.3,29.78,NW,314,0.0,2.0,56,0.00,,---,0.02,VWS V14.01,2013-09-08 00:40:00,
2013-09-07 17:45:00,74.9,58.2,29.78,NW,314,0.0,0.0,56,0.00,,---,0.02,VWS V14.01,2013-09-08 00:45:00,
2013-09-07 17:50:00,74.9,57.7,29.78,NW,315,0.0,0.0,55,0.00,,---,0.02,VWS V14.01,2013-09-08 00:50:00,
2013-09-07 17:55:00,74.9,57.7,29.80,NW,315,0.0,2.0,55,0.00,,---,0.02,VWS V14.01,2013-09-08 00:55:00,
2013-09-07 18:00:00,74.9,57.7,29.80,East,88,0.0,0.0,55,0.00,,---,0.02,VWS V14.01,2013-09-08 01:00:00,
2013-09-07 18:05:00,75.1,58.3,29.80,ESE,106,10.0,10.0,56,0.00,,---,0.02,VWS V14.01,2013-09-08 01:05:00,
2013-09-07 18:10:00,74.8,56.0,29.80,SE,132,9.0,12.0,52,0.00,,---,0.02,VWS V14.01,2013-09-08 01:10:00,
2013-09-07 18:15:00,74.4,55.7,29.80,SE,125,12.0,13.0,52,0.00,,---,0.02,VWS V14.01,2013-09-08 01:15:00,
2013-09-07 18:20:00,74.2,56.0,29.80,SE,127,6.0,10.0,53,0.00,,---,0.02,VWS V14.01,2013-09-08 01:20:00,
2013-09-07 18:25:00,74.2,56.0,29.80,ESE,106,4.0,6.0,53,0.00,,---,0.02,VWS V14.01,2013-09-08 01:25:00,
2013-09-07 18:30:00,74.4,56.2,29.79,East,98,1.0,4.0,53,0.00,,---,0.02,VWS V14.01,2013-09-08 01:30:00,
2013-09-07 18:35:00,74.6,56.4,29.79,East,98,0.0,2.0,53,0.00,,---,0.02,VWS V14.01,2013-09-08 01:35:00,
2013-09-07 18:40:00,74.6,56.4,29.79,ENE,62,3.0,4.0,53,0.00,,---,0.02,VWS V14.01,2013-09-08 01:40:00,
2013-09-07 18:45:00,74.5,56.3,29.79,ENE,60,0.0,6.0,53,0.00,,---,0.02,VWS V14.01,2013-09-08 01:45:00,
2013-09-07 18:50:00,74.4,56.2,29.79,East,94,2.0,5.0,53,0.00,,---,0.02,VWS V14.01,2013-09-08 01:50:00,
2013-09-07 18:55:00,74.2,55.5,29.79,ESE,119,6.0,7.0,52,0.00,,---,0.02,VWS V14.01,2013-09-08 01:55:00,
2013-09-07 19:00:00,74.1,55.9,29.79,East,98,0.0,1.0,53,0.00,,---,0.02,VWS V14.01,2013-09-08 02:00:00,
2013-09-07 19:05:00,73.4,56.3,29.80,ENE,62,1.0,4.0,55,0.00,,---,0.02,VWS V14.01,2013-09-08 02:05:00,
2013-09-07 19:10:00,72.9,56.3,29.80,ENE,61,0.0,0.0,56,0.00,,---,0.02,VWS V14.01,2013-09-08 02:10:00,
2013-09-07 19:15:00,72.7,56.6,29.80,ENE,62,0.0,0.0,57,0.00,,---,0.02,VWS V14.01,2013-09-08 02:15:00,
2013-09-07 19:20:00,72.4,56.3,29.80,ENE,57,0.0,0.0,57,0.00,,---,0.02,VWS V14.01,2013-09-08 02:20:00,
2013-09-07 19:25:00,72.2,55.7,29.80,NNW,330,1.0,4.0,56,0.00,,---,0.02,VWS V14.01,2013-09-08 02:25:00,
2013-09-07 19:30:00,72.3,55.2,29.80,NNW,330,0.0,4.0,55,0.00,,---,0.02,VWS V14.01,2013-09-08 02:30:00,
2013-09-07 19:35:00,72.5,55.4,29.80,NNW,335,0.0,0.0,55,0.00,,---,0.02,VWS V14.01,2013-09-08 02:35:00,
2013-09-07 19:40:00,72.6,55.5,29.80,NNW,334,0.0,0.0,55,0.00,,---,0.02,VWS V14.01,2013-09-08 02:40:00,
2013-09-07 19:45:00,72.6,55.0,29.80,NNW,334,0.0,0.0,54,0.00,,---,0.02,VWS V14.01,2013-09-08 02:45:00,
2013-09-07 19:50:00,72.6,55.0,29.80,NNW,335,0.0,0.0,54,0.00,,---,0.02,VWS V14.01,2013-09-08 02:50:00,
2013-09-07 19:55:00,72.5,55.4,29.80,NNW,334,0.0,4.0,55,0.00,,---,0.02,VWS V14.01,2013-09-08 02:55:00,
2013-09-07 20:00:00,72.4,55.8,29.80,NNW,334,0.0,4.0,56,0.00,,---,0.02,VWS V14.01,2013-09-08 03:00:00,
2013-09-07 20:05:00,72.2,56.1,29.80,NNW,334,0.0,0.0,57,0.00,,---,0.02,VWS V14.01,2013-09-08 03:05:00,
2013-09-07 20:10:00,72.0,56.0,29.80,NNW,334,0.0,0.0,57,0.00,,---,0.02,VWS V14.01,2013-09-08 03:10:00,
2013-09-07 20:15:00,71.7,56.6,29.80,NNW,334,0.0,0.0,59,0.00,,---,0.02,VWS V14.01,2013-09-08 03:15:00,
2013-09-07 20:20:00,71.3,57.2,29.81,NNW,334,0.0,0.0,61,0.00,,---,0.02,VWS V14.01,2013-09-08 03:20:00,
2013-09-07 20:25:00,71.2,57.1,29.81,NNW,334,0.0,0.0,61,0.00,,---,0.02,VWS V14.01,2013-09-08 03:25:00,
2013-09-07 20:30:00,70.8,56.7,29.81,NNW,334,0.0,0.0,61,0.00,,---,0.02,VWS V14.01,2013-09-08 03:30:00,
2013-09-07 20:35:00,70.5,56.9,29.81,NNW,334,0.0,0.0,62,0.00,,---,0.02,VWS V14.01,2013-09-08 03:35:00,
2013-09-07 20:40:00,70.2,56.6,29.81,NNW,334,0.0,0.0,62,0.00,,---,0.02,VWS V14.01,2013-09-08 03:40:00,
2013-09-07 20:45:00,69.9,56.8,29.81,NNW,334,0.0,0.0,63,0.00,,---,0.02,VWS V14.01,2013-09-08 03:45:00,
2013-09-07 20:50:00,69.9,57.6,29.81,NNW,334,0.0,0.0,65,0.00,,---,0.02,VWS V14.01,2013-09-08 03:50:00,
2013-09-07 20:55:00,69.7,57.4,29.81,NNW,334,0.0,0.0,65,0.00,,---,0.02,VWS V14.01,2013-09-08 03:55:00,
2013-09-07 21:00:00,69.6,57.8,29.81,NNW,334,0.0,0.0,66,0.00,,---,0.02,VWS V14.01,2013-09-08 04:00:00,
2013-09-07 21:01:00,69.5,57.7,29.81,NNW,334,0.0,0.0,66,0.00,,---,0.02,VWS V14.01,2013-09-08 04:01:00,
2013-09-07 21:02:00,69.6,57.8,29.81,NNW,334,0.0,0.0,66,0.00,,---,0.02,VWS V14.01,2013-09-08 04:02:00,
2013-09-07 21:05:00,69.5,57.7,29.81,NNW,334,0.0,0.0,66,0.00,,---,0.02,VWS V14.01,2013-09-08 04:05:00,
2013-09-07 21:07:00,69.5,57.7,29.81,NNW,335,0.0,2.0,66,0.00,,---,0.02,VWS V14.01,2013-09-08 04:07:00,
2013-09-07 21:10:00,69.5,57.7,29.81,NNW,336,0.0,2.0,66,0.00,,---,0.02,VWS V14.01,2013-09-08 04:10:00,
2013-09-07 21:12:00,69.4,57.1,29.80,NNW,336,0.0,0.0,65,0.00,,---,0.02,VWS V14.01,2013-09-08 04:12:00,
2013-09-07 21:15:00,69.4,57.1,29.80,NNW,336,0.0,0.0,65,0.00,,---,0.02,VWS V14.01,2013-09-08 04:15:00,
2013-09-07 21:17:00,69.3,57.0,29.80,NNW,338,0.0,0.0,65,0.00,,---,0.02,VWS V14.01,2013-09-08 04:17:00,
2013-09-07 21:20:00,69.3,57.0,29.80,NE,40,0.0,1.0,65,0.00,,---,0.02,VWS V14.01,2013-09-08 04:20:00,
2013-09-07 21:22:00,69.3,57.0,29.81,ENE,57,0.0,3.0,65,0.00,,---,0.02,VWS V14.01,2013-09-08 04:22:00,
2013-09-07 21:25:00,69.3,57.0,29.81,NE,54,0.0,3.0,65,0.00,,---,0.02,VWS V14.01,2013-09-08 04:25:00,
2013-09-07 21:27:00,69.3,57.0,29.81,NE,48,2.0,9.0,65,0.00,,---,0.02,VWS V14.01,2013-09-08 04:27:00,
2013-09-07 21:30:00,69.3,57.5,29.81,NE,56,3.0,9.0,66,0.00,,---,0.02,VWS V14.01,2013-09-08 04:30:00,
2013-09-07 21:32:00,69.2,57.4,29.81,NE,48,3.0,7.0,66,0.00,,---,0.02,VWS V14.01,2013-09-08 04:32:00,
2013-09-07 21:35:00,69.2,57.4,29.81,NE,47,9.0,9.0,66,0.00,,---,0.02,VWS V14.01,2013-09-08 04:35:00,
2013-09-07 21:37:00,69.1,57.7,29.81,NE,51,4.0,9.0,67,0.00,,---,0.02,VWS V14.01,2013-09-08 04:37:00,
2013-09-07 21:40:00,69.1,57.7,29.81,NE,49,6.0,9.0,67,0.00,,---,0.02,VWS V14.01,2013-09-08 04:40:00,
2013-09-07 21:42:00,69.0,57.6,29.81,NE,54,5.0,7.0,67,0.00,,---,0.02,VWS V14.01,2013-09-08 04:42:00,
2013-09-07 21:45:00,68.9,57.9,29.81,NE,44,3.0,7.0,68,0.00,,---,0.02,VWS V14.01,2013-09-08 04:45:00,
2013-09-07 21:47:00,68.9,57.9,29.81,NE,50,0.0,3.0,68,0.00,,---,0.02,VWS V14.01,2013-09-08 04:47:00,
2013-09-07 21:50:00,68.8,57.8,29.81,NE,52,0.0,3.0,68,0.00,,---,0.02,VWS V14.01,2013-09-08 04:50:00,
2013-09-07 21:52:00,68.7,57.7,29.81,NE,52,3.0,6.0,68,0.00,,---,0.02,VWS V14.01,2013-09-08 04:52:00,
2013-09-07 21:55:00,68.7,57.7,29.81,NE,52,2.0,6.0,68,0.00,,---,0.02,VWS V14.01,2013-09-08 04:55:00,
2013-09-07 21:57:00,68.6,57.6,29.81,NE,55,0.0,2.0,68,0.00,,---,0.02,VWS V14.01,2013-09-08 04:57:00,
2013-09-07 22:00:00,68.6,57.6,29.81,NE,55,0.0,2.0,68,0.00,,---,0.02,VWS V14.01,2013-09-08 05:00:00,
2013-09-07 22:01:00,68.6,57.6,29.81,NE,55,0.0,0.0,68,0.00,,---,0.02,VWS V14.01,2013-09-08 05:01:00,
2013-09-07 22:05:00,68.6,57.6,29.81,NE,55,0.0,0.0,68,0.00,,---,0.02,VWS V14.01,2013-09-08 05:05:00,
2013-09-07 22:06:00,68.6,57.6,29.81,NE,55,0.0,0.0,68,0.00,,---,0.02,VWS V14.01,2013-09-08 05:06:00,
2013-09-07 22:10:00,68.6,57.6,29.81,NE,55,0.0,0.0,68,0.00,,---,0.02,VWS V14.01,2013-09-08 05:10:00,
2013-09-07 22:11:00,68.5,57.5,29.82,NE,55,0.0,0.0,68,0.00,,---,0.02,VWS V14.01,2013-09-08 05:11:00,
2013-09-07 22:15:00,68.6,57.6,29.82,NE,55,0.0,0.0,68,0.00,,---,0.02,VWS V14.01,2013-09-08 05:15:00,
2013-09-07 22:16:00,68.5,57.5,29.82,NE,55,0.0,0.0,68,0.00,,---,0.02,VWS V14.01,2013-09-08 05:16:00,
2013-09-07 22:20:00,68.5,57.5,29.82,NE,55,0.0,0.0,68,0.00,,---,0.02,VWS V14.01,2013-09-08 05:20:00,
2013-09-07 22:21:00,68.5,57.9,29.82,NE,55,0.0,0.0,69,0.00,,---,0.02,VWS V14.01,2013-09-08 05:21:00,
2013-09-07 22:25:00,68.5,57.9,29.82,NE,55,0.0,0.0,69,0.00,,---,0.02,VWS V14.01,2013-09-08 05:25:00,
2013-09-07 22:26:00,68.6,58.0,29.82,NE,55,0.0,0.0,69,0.00,,---,0.02,VWS V14.01,2013-09-08 05:26:00,
2013-09-07 22:30:00,68.6,58.0,29.82,ENE,59,0.0,0.0,69,0.00,,---,0.02,VWS V14.01,2013-09-08 05:30:00,
2013-09-07 22:31:00,68.8,58.2,29.82,ENE,58,0.0,0.0,69,0.00,,---,0.02,VWS V14.01,2013-09-08 05:31:00,
2013-09-07 22:35:00,68.8,58.2,29.81,ENE,58,0.0,0.0,69,0.00,,---,0.02,VWS V14.01,2013-09-08 05:35:00,
2013-09-07 22:36:00,68.9,58.7,29.81,ENE,58,0.0,0.0,70,0.00,,---,0.02,VWS V14.01,2013-09-08 05:36:00,
2013-09-07 22:40:00,68.9,58.7,29.82,ENE,59,0.0,0.0,70,0.00,,---,0.02,VWS V14.01,2013-09-08 05:40:00,
2013-09-07 22:41:00,69.0,58.8,29.82,ENE,59,0.0,0.0,70,0.00,,---,0.02,VWS V14.01,2013-09-08 05:41:00,
2013-09-07 22:45:00,69.0,59.2,29.81,ENE,59,0.0,0.0,71,0.00,,---,0.02,VWS V14.01,2013-09-08 05:45:00,
2013-09-07 22:46:00,69.0,59.2,29.82,ENE,63,0.0,0.0,71,0.00,,---,0.02,VWS V14.01,2013-09-08 05:46:00,
2013-09-07 22:50:00,69.1,59.7,29.81,ENE,63,0.0,0.0,72,0.00,,---,0.02,VWS V14.01,2013-09-08 05:50:00,
2013-09-07 22:51:00,69.1,59.7,29.82,ENE,63,0.0,0.0,72,0.00,,---,0.02,VWS V14.01,2013-09-08 05:51:00,
2013-09-07 22:55:00,69.1,59.7,29.81,ENE,63,0.0,0.0,72,0.00,,---,0.02,VWS V14.01,2013-09-08 05:55:00,
2013-09-07 22:56:00,69.1,59.7,29.82,ENE,63,0.0,0.0,72,0.00,,---,0.02,VWS V14.01,2013-09-08 05:56:00,
2013-09-07 23:00:00,69.1,59.7,29.82,ENE,63,0.0,0.0,72,0.00,,---,0.02,VWS V14.01,2013-09-08 06:00:00,
2013-09-07 23:01:00,69.0,60.0,29.82,ENE,63,0.0,0.0,73,0.00,,---,0.02,VWS V14.01,2013-09-08 06:01:00,
2013-09-07 23:05:00,69.0,60.0,29.82,ENE,63,0.0,0.0,73,0.00,,---,0.02,VWS V14.01,2013-09-08 06:05:00,
2013-09-07 23:06:00,68.8,60.2,29.82,ENE,63,0.0,0.0,74,0.00,,---,0.02,VWS V14.01,2013-09-08 06:06:00,
2013-09-07 23:10:00,68.8,60.6,29.82,ENE,63,0.0,0.0,75,0.00,,---,0.02,VWS V14.01,2013-09-08 06:10:00,
2013-09-07 23:11:00,68.7,60.1,29.82,ENE,63,0.0,0.0,74,0.00,,---,0.02,VWS V14.01,2013-09-08 06:11:00,
2013-09-07 23:15:00,68.6,60.0,29.82,ENE,63,0.0,0.0,74,0.00,,---,0.02,VWS V14.01,2013-09-08 06:15:00,
2013-09-07 23:16:00,68.6,60.0,29.81,ENE,63,0.0,0.0,74,0.00,,---,0.02,VWS V14.01,2013-09-08 06:16:00,
2013-09-07 23:20:00,68.6,60.4,29.81,ENE,63,0.0,0.0,75,0.00,,---,0.02,VWS V14.01,2013-09-08 06:20:00,
2013-09-07 23:21:00,68.6,60.4,29.81,ENE,63,0.0,0.0,75,0.00,,---,0.02,VWS V14.01,2013-09-08 06:21:00,
2013-09-07 23:25:00,68.6,60.4,29.81,ENE,63,0.0,0.0,75,0.00,,---,0.02,VWS V14.01,2013-09-08 06:25:00,
2013-09-07 23:26:00,68.6,61.1,29.81,ENE,63,0.0,0.0,77,0.00,,---,0.02,VWS V14.01,2013-09-08 06:26:00,
2013-09-07 23:30:00,68.5,60.7,29.81,ENE,63,0.0,0.0,76,0.00,,---,0.02,VWS V14.01,2013-09-08 06:30:00,
2013-09-07 23:31:00,68.3,61.5,29.81,ENE,63,0.0,1.0,79,0.00,,---,0.02,VWS V14.01,2013-09-08 06:31:00,
2013-09-07 23:35:00,68.1,61.3,29.81,ENE,63,0.0,1.0,79,0.00,,---,0.02,VWS V14.01,2013-09-08 06:35:00,
2013-09-07 23:36:00,67.8,61.8,29.80,ENE,63,0.0,0.0,81,0.00,,---,0.02,VWS V14.01,2013-09-08 06:36:00,
2013-09-07 23:40:00,67.7,61.7,29.80,ENE,63,0.0,0.0,81,0.01,,---,0.03,VWS V14.01,2013-09-08 06:40:00,
2013-09-07 23:41:00,67.5,61.8,29.80,ENE,63,0.0,0.0,82,0.01,,---,0.03,VWS V14.01,2013-09-08 06:41:00,
2013-09-07 23:45:00,67.4,62.1,29.80,ENE,63,0.0,0.0,83,0.01,,---,0.03,VWS V14.01,2013-09-08 06:45:00,
2013-09-07 23:46:00,67.2,62.2,29.80,ENE,63,0.0,0.0,84,0.01,,---,0.03,VWS V14.01,2013-09-08 06:46:00,
2013-09-07 23:50:00,67.1,62.5,29.80,ENE,63,0.0,0.0,85,0.01,,---,0.03,VWS V14.01,2013-09-08 06:50:00,
2013-09-07 23:51:00,66.8,62.2,29.80,ENE,63,0.0,0.0,85,0.01,,---,0.03,VWS V14.01,2013-09-08 06:51:00,
2013-09-07 23:55:00,66.8,62.2,29.81,ENE,63,0.0,0.0,85,0.01,,---,0.03,VWS V14.01,2013-09-08 06:55:00,
2013-09-07 23:56:00,66.6,62.0,29.81,ENE,63,0.0,0.0,85,0.01,,---,0.03,VWS V14.01,2013-09-08 06:56:00,